Regional Weather Roundup
Issued by NWS

Home | Current Version | Previous Version | Text Only | Print | Product List | Glossary On
Versions: 1 2 3 4 5 6 7 8 9 10 11 12 13 14 15 16 17 18 19 20 21 22 23 24 25 26 27 28 29 30 31 32 33 34 35 36 37 38 39 40 41 42 43 44 45 46 47 48 49 50
000
ASUS43 KMPX 272001
RWRMN
WEATHER ROUNDUP FOR MINNESOTA
NATIONAL WEATHER SERVICE TWIN CITIES/CHANHASSEN MN
200 PM CST FRI FEB 27 2015


NOTE: "FAIR" INDICATES FEW OR NO CLOUDS BELOW 12,000 FEET WITH NO
SIGNIFICANT WEATHER AND/OR OBSTRUCTIONS TO VISIBILITY. N/A MEANS
CURRENT SKY AND/OR WEATHER CONDITIONS ARE NOT AVAILABLE.

MNZ060>063-068>070-272100-
   Twin Cities Metro

CITY           SKY/WX    TMP DP  RH WIND       PRES   REMARKS
TWIN CITIES    SUNNY     14  -2  49 SW9       30.53F WCI   2
ST PAUL        SUNNY     15  -2  46 SW9       30.54F WCI   3
CRYSTAL        SUNNY     16  -1  47 W6        30.51F WCI   7
BLAINE         SUNNY     18   1  49 W10       30.51F WCI   6
EDEN PRAIRIE   SUNNY     14  -1  51 SW12      30.52F WCI   0
SOUTH ST PAUL  SUNNY     15   1  52 W8        30.53F WCI   4
LAKE ELMO      FAIR      18   1  49 SW8       30.52F WCI   7
$$
MNZ001>005-007-008-013>017-022>024-027-028-272100-
   Northwest Minnesota

CITY           SKY/WX    TMP DP  RH WIND       PRES   REMARKS
BEMIDJI        SUNNY     15  -6  39 W7        30.36F WCI   5
HALLOCK        SUNNY     16   3  57 SW12      30.37F WCI   3
ROSEAU         FAIR      12   1  62 CALM      30.35S
WARROAD        FAIR      12  -2  52 SW12      30.33F WCI  -2
THIEF RVR FALL SUNNY     10   1  67 SW9       30.38F WCI  -2
CROOKSTON      SUNNY     14   7  73 SW12      30.42F WCI   0
FOSSTON        SUNNY     12   3  67 SW12      30.39F WCI  -2
DETROIT LAKES  SUNNY     14   1  57 SW6       30.41F WCI   5
MOORHEAD       SUNNY     18   0  45 SW12      30.45F WCI   5
PARK RAPIDS    SUNNY     16  -6  37 SW6       30.37F WCI   7
MAHNOMEN       FAIR      13   5  69 SW12      30.41F WCI   0
$$
MNZ006-009>011-018-025>026-272100-
   North Central Minnesota

CITY           SKY/WX    TMP DP  RH WIND       PRES   REMARKS
BAUDETTE       SUNNY     16  -7  35 W13       30.31F WCI   2
FLAG ISLAND    SUNNY     16  -6  38 S5        30.28F WCI   9
INTL FALLS     SUNNY     18  -9  29 W13G20    30.32F WCI   5
WASKISH        SUNNY     14   0  52 SW9       30.36F WCI   2
BIG FORK       SUNNY     19  -6  32 SW7       30.34F WCI  10
LONGVILLE      SUNNY     19  -9  27 SW7       30.37F WCI  10
GRAND RAPIDS   SUNNY     16  -6  38 SW9       30.35F WCI   4
CRANE LAKE     SUNNY     18 -13  25 SW7       30.35F WCI   8
ORR            SUNNY     18 -13  25 SW7       30.30F WCI   8
COOK           SUNNY     18  -8  32 W13       30.34S WCI   4
WALKER         FAIR      17  -7  35 W10       30.37F WCI   4
$$
MNZ012-019>021-037-272100-
   Northeast Minnesota

CITY           SKY/WX    TMP DP  RH WIND       PRES   REMARKS
DULUTH         SUNNY     16  -4  41 W14G21    30.36F WCI   2
ELY            SUNNY     18 -11  27 SW6       30.31F WCI   9
HIBBING        SUNNY     18  -9  29 W8        30.35F WCI   8
EVELETH        SUNNY     18  -6  35 SW8       30.35F WCI   7
DULUTH HARBOR  SUNNY     18  -2  41 SW12G18   30.44F WCI   5
TWO HARBORS    SUNNY     21   0  39 W9        30.36F WCI  11
SILVER BAY     SUNNY     23  -9  23 SW6       30.34F WCI  16
GRAND MARAIS     N/A     17   7  64 SW23G30   30.37S WCI  -1
G MARAIS ARPRT SUNNY     18 -15  23 W6G16     30.26S WCI   9
$$
MNZ029>031-032-039>041-046>048-054>057-064-272100-
   West Central Minnesota

CITY           SKY/WX    TMP DP  RH WIND       PRES   REMARKS
FERGUS FALLS   SUNNY     12  -2  52 SW6       30.49F WCI   3
WHEATON        SUNNY     12  -2  52 S5        30.48F WCI   4
MORRIS         SUNNY     16  -2  45 W7        30.46F WCI   6
ALEXANDRIA     SUNNY    N/A N/A N/A SW7       30.44F
ELBOW LAKE     FAIR      10   2  69 SW6       30.45F WCI   0
WADENA         SUNNY     12   0  57 SW10      30.41F WCI  -1
GLENWOOD       SUNNY     12   0  57 SW9       30.45F WCI   0
APPLETON       SUNNY     18   0  45 SW3       30.49F
BENSON         SUNNY     16  -2  45 W6        30.48F WCI   7
ORTONVILLE     SUNNY     16  -2  45 S3        30.47F
MADISON        SUNNY     16  -6  38 W3        30.48F
WILLMAR        FAIR      12   0  57 W8        30.50F WCI   1
$$
MNZ033>034-036-042>043-049>051-058-059-272100-
   Central Minnesota

CITY           SKY/WX    TMP DP  RH WIND       PRES   REMARKS
ST CLOUD       SUNNY     14  -4  44 VRB5      30.47F WCI   6
SAUK CENTRE    FAIR      13  -3  47 W8        30.45F WCI   2
PAYNESVILLE    SUNNY     11  -6  46 SW7       30.48F WCI   0
AITKIN         SUNNY     19 -13  23 SW9       30.40F WCI   9
PINE RIVER     SUNNY     16  -2  45 SW5       30.42F WCI   9
BRAINERD       SUNNY     16  -5  39 SW10      30.42F WCI   4
STAPLES        SUNNY     16  -2  45 W5        30.41F WCI   9
LONG PRAIRIE   FAIR      14  -4  44 W7        30.44F WCI   4
LITTLE FALLS   SUNNY     18  -6  35 W6        30.45F WCI   9
LITCHFIELD     SUNNY     12   0  57 W7        30.50F WCI   2
BUFFALO        SUNNY     14   0  52 SW7       30.52F WCI   4
MAPLE LAKE     SUNNY     15   2  56 SW6       30.51F WCI   6
$$
MNZ037-044-045-052-053-272100-
   East Central Minnesota

CITY           SKY/WX    TMP DP  RH WIND       PRES   REMARKS
PRINCETON      SUNNY     18   0  45 SW6       30.47F WCI   9
MORA           SUNNY     18   0  45 SW6       30.48F WCI   9
CAMBRIDGE      SUNNY     16   1  53 SW6       30.47F WCI   7
RUSH CITY      SUNNY     15  -2  45 W5        30.48F WCI   8
MOOSE LAKE     SUNNY     19  -6  32 CALM      30.41F
HINCKLEY       FAIR      18   0  45 SW8       30.46F WCI   7
CLOQUET        SUNNY     16 -11  29 SW6G18    30.38F WCI   7
MCGREGOR       SUNNY     18  -4  38 SW6       30.41F WCI   9
$$
MNZ071>073-080-081-089-090-097-098-272100-
   Southwest Minnesota

CITY           SKY/WX    TMP DP  RH WIND       PRES   REMARKS
MONTEVIDEO     SUNNY     19   3  49 CALM      30.50F
GRANITE FALLS  SUNNY     14   2  58 CALM      30.51F
CANBY          SUNNY     15   0  52 W7        30.48F WCI   5
MARSHALL       SUNNY     12  -2  52 W6        30.50F WCI   3
REDWOOD FALLS  SUNNY     12   0  58 W8        30.51F WCI   0
OLIVIA         SUNNY     14   1  57 W6        30.49F WCI   5
PIPESTONE      SUNNY     10   0  61 W5        30.43F WCI   2
WINDOM         SUNNY     12   1  62 W8        30.48F WCI   1
WORTHINGTON    SUNNY     27  -2  28 W7        30.49F WCI  19
JACKSON        SUNNY     12   1  62 W7        30.49F WCI   2
TRACY          SUNNY     14   1  56 W7        30.48F WCI   4
SLAYTON        SUNNY     11  -2  55 W3        30.46F
$$
MNZ065>067-074>077-082>085-091>093-272100-
   South Central Minnesota

CITY           SKY/WX    TMP DP  RH WIND       PRES   REMARKS
MANKATO        SUNNY     10  -6  48 W8        30.53F WCI  -1
NEW ULM        SUNNY     10  -2  56 W5        30.52F WCI   2
ST JAMES       SUNNY     12   0  57 SW6       30.54F WCI   3
FAIRMONT       SUNNY     12   0  57 W6        30.52S WCI   3
GLENCOE        SUNNY     13   2  61 SW7       30.51F WCI   2
FARIBAULT      SUNNY     10  -2  56 SW6       30.53F WCI   1
OWATONNA       SUNNY      9  -2  61 SW8       30.52F WCI  -4
WASECA         SUNNY      9   0  66 W7        30.55F WCI  -3
ALBERT LEA     SUNNY      9   0  66 SW5       30.53S WCI   0
$$
MNZ078>079-086>088-094>096-272100-
   Southeast Minnesota

CITY           SKY/WX    TMP DP  RH WIND       PRES   REMARKS
ROCHESTER      SUNNY      7  -2  66 W8        30.52F WCI  -6
RED WING       SUNNY     14  -2  48 W7        30.54F WCI   4
STANTON        SUNNY     12  -2  53 SW9       30.52F WCI   0
DODGE CENTER   SUNNY      7   0  72 W9        30.50F WCI  -7
WINONA         SUNNY     14   0  52 SW8       30.58F WCI   3
AUSTIN         SUNNY      9  -2  61 S7        30.53S WCI  -3
PRESTON        SUNNY      6  -5  60 W7        30.53F WCI  -6
$$
ABBREVIATIONS USED IN REMARKS
   TC - TEMPERATURES IN CELSIUS
  WCI - WIND CHILL INDEX
   HX - HEAT INDEX
  VSB - VISIBILITY
$$



USA.gov is the U.S. government's official web portal to all federal, state and local government web resources and services.